Weather Roundup
Issued by NWS Springfield, MO

Home | Current Version | Previous Version | Text Only | Print | Product List | Glossary On
Versions: 1 2 3 4 5 6 7 8 9 10 11 12 13 14 15 16 17 18 19 20 21 22 23 24 25 26 27 28 29 30 31 32 33 34 35 36 37 38 39 40 41 42 43 44 45 46 47 48 49 50
000
NZUS99 KSGF 190057
HRRSGF

HOURLY WEATHER
NATIONAL WEATHER SERVICE SPRINGFIELD MO
700 PM CST SUN FEB 18 2018

......SGF CWA......

CITY           SKY/WX    TMP DP  RH WIND       PRES   REMARKS
SPRINGFIELD    CLOUDY    51  40  65 S21G30    29.84F
JOPLIN         CLOUDY    54  45  71 S16       29.81F
WEST PLAINS    CLOUDY    48  38  68 S12G22    29.98S
ROLLA          CLOUDY    47  33  58 S17       29.88F
BRANSON        CLOUDY    48  43  81 SE15G23   29.93F

......SURROUNDING SGF CWA......

CITY           SKY/WX    TMP DP  RH WIND       PRES   REMARKS
CHANUTE        CLOUDY    52  44  74 S25G37    29.74F
PARSONS        CLOUDY    52  45  77 S12G24    29.78F
COFFEYVILLE    CLOUDY    53  45  74 S21G29    29.77F
EMPORIA        CLOUDY    50  41  71 S22G28    29.67F
SILOAM SPRINGS CLOUDY    52  46  82 S13       29.89R
HARRISON AR    CLOUDY    47  44  90 SE14      29.93F

......KANSAS AND MISSOURI......

CITY           SKY/WX    TMP DP  RH WIND       PRES   REMARKS
KANSAS CTY INT CLOUDY    55  36  48 S21       29.69R
SEDALIA        MOCLDY    53  35  50 S18       29.78F
ST JOSEPH      CLOUDY    54  37  52 S20       29.67S
ST LOUIS       CLOUDY    49  34  56 S22       29.94F
WICHITA        PTCLDY    52  46  80 S25G32    29.65S
TOPEKA         CLOUDY    54  43  66 S20G30    29.67F
OLATHE         CLOUDY    54  38  54 S18G31    29.70R

......TENNESSEE......

CITY           SKY/WX    TMP DP  RH WIND       PRES   REMARKS
MEMPHIS        NOT AVBL
NASHVILLE      CLOUDY    58  37  45 SE7       30.14F

......ARKANSAS.......

CITY           SKY/WX    TMP DP  RH WIND       PRES   REMARKS
FAYETTEVILLE   CLOUDY    49  47  93 S6        29.90S
FT SMITH       CLOUDY    51  47  86 E13       29.95R
LITTLE ROCK    CLOUDY    48  48 100 SE9       30.03F FOG

......OKLAHOMA.......

CITY           SKY/WX    TMP DP  RH WIND       PRES   REMARKS
TULSA          DRIZZLE   51  50  96 S20       29.82S FOG
PONCA CITY     CLOUDY    52  46  80 S17       29.73R
MCALESTER      CLOUDY    52  51  97 S8G23     29.89S
OKLAHOMA CITY  DRZL/FOG  52  52 100 S20G29    29.76F VSB 1

......IOWA............

CITY           SKY/WX    TMP DP  RH WIND       PRES   REMARKS
DES MOINES     NOT AVBL
QUAD CITIES    FAIR      42  30  62 S9        29.83R

......ILLINOIS........

CITY           SKY/WX    TMP DP  RH WIND       PRES   REMARKS
QUINCY         NOT AVBL
CHICAGO        MOCLDY    37  30  75 S15       29.94F WCI  28



USA.gov is the U.S. government's official web portal to all federal, state and local government web resources and services.